White Plains, CT

3:23 PM EDT on October 18, 2019 (GMT -0400)
Westchester County

Weather History for KHPN - August, 2019

Change the Weather History Date:

Monday, August 19, 2019

  Actual Average Record
Temperature  
Mean Temperature 79 °F -  
Max Temperature 90 °F 78 °F 90 °F (2019)
Min Temperature 68 °F 61 °F 52 °F (1977)
Cooling Degree Days 14    
Growing Degree Days 29 (Base 50)    
Moisture  
Dew Point 69 °F    
Average Humidity 76    
Maximum Humidity 93    
Minimum Humidity 52    
Precipitation  
Precipitation 0.00 in - - ()
Sea Level Pressure  
Sea Level Pressure 29.96 in    
Wind  
Wind Speed 3 mph (West)    
Max Wind Speed 10 mph    
Max Gust Speed -    
Visibility 10 miles    
Events Thunderstorm    
Averages and records for this station are not official NWS values.
T = Trace of Precipitation, MM = Missing Value Source: NWS Daily Summary

Daily Weather History Graph

Daily Weather History Graph

Search for Another Location

Airport or City:

Astronomy

Aug. 19, 2019 Rise Set
Actual Time 6:08 AM EDT 7:48 PM EDT
Civil Twilight 5:38 AM EDT 8:17 PM EDT
Nautical Twilight 5:03 AM EDT 8:52 PM EDT
Astronomical Twilight 4:25 AM EDT 9:30 PM EDT
Moon 10:06 PM EDT (8/19) 9:48 AM EDT (8/19)
Length of Visible Light 14h 38m
Length of Day
13h 39m
Waning Gibbous, 85% of the Moon is Illuminated
Aug 19
Waning Gibbous
Aug 23
Last Quarter
Aug 30
New
Sep 5
First Quarter
Sep 14
Full

Hourly Weather History & Observations

Time (EDT) Temp. Heat Index Dew Point Humidity Pressure Visibility Wind Dir Wind Speed Gust Speed Precip Events Conditions
12:56 AM 68.0 °F - 64.0 °F 87% 29.95 in 10.0 mi Calm Calm - N/A   Clear
1:56 AM 68.0 °F - 64.0 °F 87% 29.95 in 10.0 mi WNW 3.5 mph - N/A   Clear
2:56 AM 68.0 °F - 64.9 °F 90% 29.94 in 10.0 mi Calm Calm - N/A   Clear
3:56 AM 70.0 °F - 64.9 °F 84% 29.96 in 10.0 mi NW 4.6 mph - N/A   Scattered Clouds
4:56 AM 70.0 °F - 64.9 °F 84% 29.96 in 10.0 mi NNW 3.5 mph - N/A   Clear
5:56 AM 69.1 °F - 66.0 °F 90% 29.98 in 10.0 mi Calm Calm - N/A   Scattered Clouds
6:56 AM 70.0 °F - 68.0 °F 93% 29.99 in 10.0 mi Calm Calm - 0.00 in   Scattered Clouds
7:56 AM 75.0 °F - 69.1 °F 82% 29.98 in 10.0 mi Calm Calm - N/A   Partly Cloudy
8:56 AM 77.0 °F - 70.0 °F 79% 29.98 in 10.0 mi Variable 3.5 mph - N/A   Scattered Clouds
9:56 AM 79.0 °F - 72.0 °F 79% 29.98 in 10.0 mi SW 5.8 mph - N/A   Partly Cloudy
10:56 AM 82.9 °F 88.0 °F 72.0 °F 69% 29.98 in 10.0 mi West 8.1 mph - N/A   Partly Cloudy
11:56 AM 84.9 °F 89.4 °F 70.0 °F 61% 29.97 in 10.0 mi WNW 9.2 mph - N/A   Partly Cloudy
12:56 PM 88.0 °F 92.9 °F 70.0 °F 55% 29.96 in 10.0 mi Variable 6.9 mph - N/A   Partly Cloudy
1:56 PM 90.0 °F 95.4 °F 70.0 °F 52% 29.95 in 10.0 mi Variable 4.6 mph - N/A   Partly Cloudy
2:56 PM 89.1 °F 93.7 °F 69.1 °F 52% 29.93 in 10.0 mi West 8.1 mph - N/A   Partly Cloudy
3:56 PM 88.0 °F 92.1 °F 69.1 °F 53% 29.90 in 10.0 mi SW 4.6 mph - N/A   Mostly Cloudy
4:11 PM 87.1 °F 92.8 °F 71.1 °F 59% 29.92 in 10.0 mi South 10.4 mph - N/A Thunderstorm Thunderstorm
4:56 PM 82.0 °F 84.5 °F 66.9 °F 60% 29.93 in 10.0 mi ENE 5.8 mph - 0.00 in   Scattered Clouds
5:56 PM 81.0 °F 84.1 °F 69.1 °F 67% 29.95 in 10.0 mi South 6.9 mph - N/A   Partly Cloudy
6:56 PM 77.0 °F - 70.0 °F 79% 29.97 in 10.0 mi SSE 5.8 mph - N/A   Partly Cloudy
7:56 PM 75.0 °F - 70.0 °F 84% 29.97 in 10.0 mi Calm Calm - N/A   Partly Cloudy
8:56 PM 75.0 °F - 71.1 °F 87% 29.97 in 10.0 mi WNW 4.6 mph - N/A   Partly Cloudy
9:56 PM 75.0 °F - 70.0 °F 84% 29.99 in 10.0 mi West 3.5 mph - N/A   Clear
10:56 PM 73.9 °F - 70.0 °F 87% 30.00 in 10.0 mi WNW 3.5 mph - N/A   Clear
11:56 PM 73.0 °F - 70.0 °F 90% 30.00 in 10.0 mi NW 3.5 mph - N/A   Clear